Oakes, ND

4:07 AM CST on November 22, 2019 (GMT -0600)
Oakes

Weather History for K2D5 - September, 2019

Change the Weather History Date:

Friday, September 6, 2019

  Actual Average (WUND) Record (WUND)
Temperature  
Mean Temperature 63 °F -  
Max Temperature 73 °F - - (-1)
Min Temperature 53 °F - - (-1)
Degree Days  
Heating Degree Days 2    
Growing Degree Days 13 (Base 50)    
Moisture  
Dew Point 58 °F    
Average Humidity 86    
Maximum Humidity 100    
Minimum Humidity 57    
Precipitation  
Precipitation 0.00 in - - ()
Sea Level Pressure  
Sea Level Pressure 30.16 in    
Wind  
Wind Speed 5 mph (NNW)    
Max Wind Speed 14 mph    
Max Gust Speed 16 mph    
Visibility 9 miles    
Events      
Averages and records for this station are not official NWS values.
T = Trace of Precipitation, MM = Missing Value Source: NWS Daily Summary

Daily Weather History Graph

Daily Weather History Graph

Search for Another Location

Airport or City:

Astronomy

Sep. 06, 2019 Rise Set
Actual Time 6:58 AM CDT 8:01 PM CDT
Civil Twilight 6:28 AM CDT 8:32 PM CDT
Nautical Twilight 5:51 AM CDT 9:08 PM CDT
Astronomical Twilight 5:12 AM CDT 9:47 PM CDT
Moon 3:34 PM CDT (9/6) No Moon Set
Length of Visible Light 14h 03m
Length of Day
13h 02m
First Quarter, 56% of the Moon is Illuminated
Sep 6
First Quarter
Sep 13
Full
Sep 21
Last Quarter
Sep 28
New
Oct 5
First Quarter

Hourly Weather History & Observations

Time (CDT) Temp. Dew Point Humidity Pressure Visibility Wind Dir Wind Speed Gust Speed Precip Events Conditions
12:15 AM 57.2 °F 57.2 °F 100% 30.12 in 8.0 mi Calm Calm - N/A   Partly Cloudy
12:35 AM 57.2 °F 57.2 °F 100% 30.12 in 9.0 mi Calm Calm - N/A   Clear
12:55 AM 57.2 °F 57.2 °F 100% 30.12 in 6.0 mi Calm Calm - N/A   Clear
1:15 AM 57.2 °F 57.2 °F 100% 30.13 in 8.0 mi NNW 4.6 mph - N/A   Partly Cloudy
1:35 AM 57.2 °F 57.2 °F 100% 30.13 in 9.0 mi North 4.6 mph - N/A   Partly Cloudy
1:55 AM 55.4 °F 55.4 °F 100% 30.14 in 6.0 mi Calm Calm - N/A   Clear
2:15 AM 55.4 °F 55.4 °F 100% 30.15 in 1.8 mi WSW 4.6 mph - N/A   Scattered Clouds
2:35 AM 55.4 °F 55.4 °F 100% 30.15 in 7.0 mi WSW 4.6 mph - N/A   Clear
2:55 AM 55.4 °F 55.4 °F 100% 30.15 in 7.0 mi West 4.6 mph - N/A   Clear
3:15 AM 55.4 °F 55.4 °F 100% 30.14 in 6.0 mi WNW 4.6 mph - N/A   Clear
3:35 AM 55.4 °F 55.4 °F 100% 30.14 in 8.0 mi WNW 4.6 mph - N/A   Clear
3:55 AM 55.4 °F 55.4 °F 100% 30.15 in 7.0 mi West 5.8 mph - N/A   Clear
4:15 AM 55.4 °F 55.4 °F 100% 30.15 in 7.0 mi WSW 4.6 mph - N/A   Clear
4:35 AM 55.4 °F 55.4 °F 100% 30.15 in 6.0 mi WSW 3.5 mph - N/A   Clear
4:55 AM 55.4 °F 55.4 °F 100% 30.15 in 6.0 mi West 6.9 mph - N/A   Clear
5:15 AM 55.4 °F 55.4 °F 100% 30.15 in 9.0 mi Calm Calm - N/A   Clear
5:35 AM 55.4 °F 55.4 °F 100% 30.15 in 9.0 mi Calm Calm - N/A   Clear
5:55 AM 53.6 °F 53.6 °F 100% 30.16 in 6.0 mi SW 5.8 mph - N/A   Clear
6:15 AM 53.6 °F 53.6 °F 100% 30.16 in 1.0 mi Calm Calm - N/A   Clear
6:35 AM 53.6 °F 53.6 °F 100% 30.16 in 2.0 mi West 3.5 mph - N/A   Clear
6:55 AM 53.6 °F 53.6 °F 100% 30.16 in 6.0 mi West 6.9 mph - N/A   Clear
7:15 AM 53.6 °F 53.6 °F 100% 30.17 in 8.0 mi WSW 6.9 mph - N/A   Clear
7:35 AM 55.4 °F 55.4 °F 100% 30.18 in 9.0 mi West 6.9 mph - N/A   Clear
7:55 AM 55.4 °F 55.4 °F 100% 30.18 in 9.0 mi West 4.6 mph - N/A   Clear
8:15 AM 55.4 °F 55.4 °F 100% 30.19 in 9.0 mi Calm Calm - N/A   Mostly Cloudy
8:35 AM 57.2 °F 57.2 °F 100% 30.19 in 9.0 mi Calm Calm - N/A   Overcast
8:55 AM 59.0 °F 59.0 °F 100% 30.20 in 10.0 mi NNW 4.6 mph - N/A   Mostly Cloudy
9:15 AM 60.8 °F 60.8 °F 100% 30.20 in 10.0 mi West 5.8 mph - N/A   Clear
9:35 AM 62.6 °F 62.6 °F 100% 30.20 in 10.0 mi West 5.8 mph - N/A   Clear
9:55 AM 64.4 °F 64.4 °F 100% 30.20 in 10.0 mi West 11.5 mph - N/A   Partly Cloudy
10:15 AM 66.2 °F 64.4 °F 94% 30.20 in 10.0 mi WNW 10.4 mph - N/A   Partly Cloudy
10:35 AM 66.2 °F 64.4 °F 94% 30.20 in 10.0 mi NW 11.5 mph - N/A   Scattered Clouds
10:55 AM 66.2 °F 62.6 °F 88% 30.20 in 10.0 mi NW 10.4 mph - N/A   Mostly Cloudy
11:15 AM 68.0 °F 64.4 °F 88% 30.20 in 10.0 mi WNW 9.2 mph - N/A   Scattered Clouds
11:35 AM 69.8 °F 62.6 °F 78% 30.20 in 10.0 mi NNW 6.9 mph - N/A   Partly Cloudy
11:55 AM 69.8 °F 60.8 °F 73% 30.19 in 10.0 mi NNW 9.2 mph - N/A   Clear
12:15 PM 69.8 °F 60.8 °F 73% 30.19 in 10.0 mi NNW 11.5 mph - N/A   Clear
12:55 PM 71.6 °F 60.8 °F 69% 30.19 in 10.0 mi North 8.1 mph - N/A   Clear
1:15 PM 73.4 °F 59.0 °F 61% 30.19 in 10.0 mi North 9.2 mph - N/A   Clear
1:35 PM 73.4 °F 59.0 °F 61% 30.18 in 10.0 mi NNW 9.2 mph 15.0 mph N/A   Clear
1:55 PM 73.4 °F 59.0 °F 61% 30.18 in 10.0 mi North 9.2 mph - N/A   Clear
2:15 PM 73.4 °F 59.0 °F 61% 30.18 in 10.0 mi NNW 8.1 mph 13.8 mph N/A   Clear
2:35 PM 73.4 °F 59.0 °F 61% 30.17 in 10.0 mi North 13.8 mph - N/A   Clear
2:55 PM 73.4 °F 57.2 °F 57% 30.17 in 10.0 mi NW 10.4 mph - N/A   Clear
3:15 PM 73.4 °F 59.0 °F 61% 30.16 in 10.0 mi NW 11.5 mph - N/A   Clear
3:35 PM 73.4 °F 57.2 °F 57% 30.17 in 10.0 mi NW 10.4 mph - N/A   Clear
3:55 PM 73.4 °F 59.0 °F 61% 30.16 in 9.0 mi NNW 10.4 mph - N/A   Clear
4:15 PM 73.4 °F 57.2 °F 57% 30.15 in 10.0 mi North 9.2 mph 16.1 mph N/A   Clear
4:35 PM 73.4 °F 57.2 °F 57% 30.15 in 10.0 mi NNW 11.5 mph - N/A   Clear
4:55 PM 73.4 °F 57.2 °F 57% 30.15 in 10.0 mi NNW 10.4 mph - N/A   Clear
5:15 PM 73.4 °F 57.2 °F 57% 30.15 in 10.0 mi NNW 11.5 mph - N/A   Clear
5:35 PM 71.6 °F 57.2 °F 60% 30.15 in 10.0 mi North 10.4 mph - N/A   Clear
5:55 PM 71.6 °F 57.2 °F 60% 30.15 in 10.0 mi North 8.1 mph - N/A   Clear
6:15 PM 69.8 °F 57.2 °F 64% 30.15 in 10.0 mi NNE 5.8 mph - N/A   Clear
6:35 PM 69.8 °F 57.2 °F 64% 30.14 in 10.0 mi North 8.1 mph - N/A   Clear
6:55 PM 68.0 °F 59.0 °F 73% 30.15 in 10.0 mi NNE 5.8 mph - N/A   Clear
7:15 PM 66.2 °F 59.0 °F 78% 30.15 in 10.0 mi NNE 5.8 mph - N/A   Clear
7:35 PM 64.4 °F 59.0 °F 83% 30.14 in 10.0 mi North 5.8 mph - N/A   Clear
7:55 PM 62.6 °F 57.2 °F 82% 30.14 in 10.0 mi North 6.9 mph - N/A   Clear
8:15 PM 62.6 °F 57.2 °F 82% 30.14 in 10.0 mi North 4.6 mph - N/A   Clear
8:35 PM 60.8 °F 59.0 °F 94% 30.15 in 10.0 mi NNE 4.6 mph - N/A   Clear
8:55 PM 60.8 °F 57.2 °F 88% 30.15 in 10.0 mi NNE 4.6 mph - N/A   Clear
9:15 PM 59.0 °F 57.2 °F 94% 30.15 in 10.0 mi NNE 5.8 mph - N/A   Clear
9:35 PM 59.0 °F 57.2 °F 94% 30.14 in 10.0 mi NNE 5.8 mph - N/A   Clear
9:55 PM 57.2 °F 57.2 °F 100% 30.15 in 10.0 mi Calm Calm - N/A   Clear
10:15 PM 59.0 °F 57.2 °F 94% 30.14 in 10.0 mi NNE 5.8 mph - N/A   Clear
10:35 PM 57.2 °F 57.2 °F 100% 30.14 in 9.0 mi NE 6.9 mph - N/A   Clear
10:55 PM 59.0 °F 57.2 °F 94% 30.15 in 10.0 mi NE 8.1 mph - N/A   Clear
11:15 PM 59.0 °F 57.2 °F 94% 30.14 in 9.0 mi NE 10.4 mph - N/A   Clear
11:35 PM 59.0 °F 55.4 °F 88% 30.14 in 10.0 mi NE 5.8 mph - N/A   Clear
11:55 PM 57.2 °F 57.2 °F 100% 30.15 in 10.0 mi Calm Calm - N/A   Clear